Regional Weather Roundup
Issued by NWS Little Rock, AR

Home | Current Version | Previous Version | Text Only | Print | Product List | Glossary Off
Versions: 1 2 3 4 5 6 7 8 9 10 11 12 13 14 15 16 17 18 19 20 21 22 23 24 25 26 27

000
ASUS44 KLZK 200205
RWRLZK

WEATHER ROUNDUP FOR ARKANSAS
NATIONAL WEATHER SERVICE LITTLE ROCK AR
900 PM CDT SAT APR 19 2014

NOTE: "FAIR" INDICATES FEW OR NO CLOUDS BELOW 12,000 FEET WITH NO
SIGNIFICANT WEATHER AND/OR OBSTRUCTIONS TO VISIBILITY.

ARZ001-003-010-029-200300-
NORTHWEST ARKANSAS

CITY           SKY/WX    TMP DP  RH WIND       PRES   REMARKS
FAYETTEVILLE   CLEAR     60  49  66 CALM      30.14R
FORT SMITH     MOCLDY    68  52  56 VRB3      30.10R
HARRISON       CLEAR     65  46  50 SE6       30.15R
BENTONVILLE    CLEAR     64  45  48 S6        30.14R
ROGERS         CLEAR     65  47  52 S7        30.14R
SILOAM SPGS    CLEAR     66  45  45 SE6       30.13S
HIGHFILL       CLEAR     62  47  57 S5        30.12R
SPRINGDALE     CLEAR     66  48  52 S5        30.15S
$$

ARZ004-005-016-200300-
NORTH CENTRAL ARKANSAS

CITY           SKY/WX    TMP DP  RH WIND       PRES   REMARKS
BATESVILLE     CLEAR     64  45  48 SE5       30.16R
FLIPPIN        CLEAR     68  43  40 CALM      30.14R
MTN HOME       CLEAR     68  42  38 SE7       30.13S
$$

ARZ040-041-200300-
WEST CENTRAL ARKANSAS

CITY           SKY/WX    TMP DP  RH WIND       PRES   REMARKS
MENA           CLEAR     61  50  67 CALM      30.14R
MOUNT IDA      CLEAR     62  53  72 CALM      30.11S
$$

ARZ009-017-025-026-028-200300-
NORTHEAST ARKANSAS

CITY           SKY/WX    TMP DP  RH WIND       PRES   REMARKS
CORNING        FAIR      64  48  55 CALM      30.17S
JONESBORO      CLEAR     59  48  67 CALM      30.16R
NEWPORT        CLEAR     67  50  54 E12       30.17R
WALNUT RIDGE   CLEAR     66  48  52 E5        30.17R
BLYTHEVILLE    CLEAR     64  49  57 N3        30.16R
$$

ARZ022-023-033-042-044-200300-
CENTRAL ARKANSAS

CITY           SKY/WX    TMP DP  RH WIND       PRES   REMARKS
LITTLE ROCK    PTCLDY    65  50  58 SE5       30.14S
N LITTLE ROCK  PTCLDY    68  51  55 E6        30.14S
JACKSONVILLE   CLEAR     60  54  79 E5        30.15R
SEARCY         CLEAR     62  50  65 CALM      30.17R
HOT SPRINGS    CLEAR     63  52  67 NE5       30.13S
RUSSELLVILLE   CLEAR     63  52  67 E3        30.13R
CLINTON        FAIR      61  54  77 CALM      30.15S
$$

ARZ036-200300-
EAST ARKANSAS

CITY           SKY/WX    TMP DP  RH WIND       PRES   REMARKS
WEST MEMPHIS   CLEAR     65  46  50 N5        30.14R
$$

ARZ050-053-066-070-073-200300-
SOUTHWEST ARKANSAS

CITY           SKY/WX    TMP DP  RH WIND       PRES   REMARKS
ARKADELPHIA    FAIR      64  59  84 CALM      30.13S
CAMDEN         CLEAR     61  54  77 MISG      30.12S
TEXARKANA      PTCLDY    65  52  62 E3        30.12R
EL DORADO      CLEAR     61  55  81 CALM      30.13R
DE QUEEN       PTCLDY    60  56  86 CALM      30.10R
$$

ARZ056-057-069-200300-
SOUTHEAST ARKANSAS

CITY           SKY/WX    TMP DP  RH WIND       PRES   REMARKS
PINE BLUFF     CLEAR     66  54  65 E3        30.14S
STUTTGART      CLEAR     70  50  49 CALM      30.16S
MONTICELLO     CLEAR     64  54  69 CALM      30.14R

$$





USA.gov is the U.S. government's official web portal to all federal, state and local government web resources and services.